TimeEST,TemperatureF,Dew PointF,Humidity,Sea Level PressureIn,VisibilityMPH,Wind Direction,Wind SpeedMPH,Gust SpeedMPH,PrecipitationIn,Events,Conditions,WindDirDegrees,DateUTC
12:54 AM,10.9,3.0,70,30.49,10.0,NW,12.7,-,0.00,,Overcast,320,2013-01-25 05:54:00
1:54 AM,10.0,1.9,70,30.48,10.0,NNW,8.1,-,0.00,,Overcast,330,2013-01-25 06:54:00
2:54 AM,8.1,1.0,73,30.47,10.0,NW,3.5,-,N/A,,Mostly Cloudy,320,2013-01-25 07:54:00
3:54 AM,6.1,-0.0,76,30.47,10.0,WNW,3.5,-,N/A,,Overcast,300,2013-01-25 08:54:00
4:54 AM,1.9,-0.9,88,30.45,5.0,ENE,3.5,-,0.00,,Overcast,70,2013-01-25 09:54:00
5:54 AM,3.9,-2.0,76,30.43,6.0,ENE,3.5,-,0.00,,Haze,70,2013-01-25 10:54:00
6:15 AM,3.2,-2.2,78,30.40,6.0,ENE,4.6,-,0.00,,Haze,70,2013-01-25 11:15:00
6:54 AM,1.9,-2.9,80,30.43,9.0,Calm,Calm,-,0.00,,Overcast,0,2013-01-25 11:54:00
7:13 AM,1.4,-2.2,85,30.40,10.0,Calm,Calm,-,N/A,,Scattered Clouds,0,2013-01-25 12:13:00
7:26 AM,1.4,-4.0,78,30.39,10.0,Calm,Calm,-,N/A,,Mostly Cloudy,0,2013-01-25 12:26:00
7:50 AM,1.4,-5.8,72,30.39,10.0,Calm,Calm,-,N/A,,Scattered Clouds,0,2013-01-25 12:50:00
7:54 AM,1.9,-4.0,76,30.43,10.0,Calm,Calm,-,N/A,,Partly Cloudy,0,2013-01-25 12:54:00
8:54 AM,3.0,-4.0,73,30.41,10.0,SE,3.5,-,N/A,,Scattered Clouds,130,2013-01-25 13:54:00
9:54 AM,5.0,-2.0,73,30.39,10.0,ESE,4.6,-,N/A,,Clear,120,2013-01-25 14:54:00
10:54 AM,7.0,-0.0,73,30.36,10.0,Calm,Calm,-,N/A,,Clear,0,2013-01-25 15:54:00
11:54 AM,10.0,1.9,70,30.31,10.0,SSE,3.5,-,N/A,,Partly Cloudy,160,2013-01-25 16:54:00
12:54 PM,10.9,3.0,70,30.28,10.0,South,4.6,-,N/A,,Mostly Cloudy,170,2013-01-25 17:54:00
1:54 PM,12.9,3.0,65,30.24,10.0,Calm,Calm,-,N/A,,Overcast,0,2013-01-25 18:54:00
2:54 PM,12.9,3.0,65,30.22,10.0,ESE,4.6,-,N/A,,Overcast,110,2013-01-25 19:54:00
3:54 PM,12.9,1.9,62,30.19,10.0,Calm,Calm,-,N/A,,Overcast,0,2013-01-25 20:54:00
4:54 PM,12.9,3.0,65,30.17,10.0,East,3.5,-,N/A,,Overcast,90,2013-01-25 21:54:00
5:54 PM,12.9,3.9,67,30.15,10.0,Calm,Calm,-,N/A,,Overcast,0,2013-01-25 22:54:00
6:54 PM,12.0,5.0,73,30.15,4.0,Calm,Calm,-,0.00,Snow,Light Snow,0,2013-01-25 23:54:00
7:54 PM,10.9,6.1,81,30.14,6.0,Calm,Calm,-,0.00,,Haze,0,2013-01-26 00:54:00
8:54 PM,10.0,6.1,84,30.13,5.0,Calm,Calm,-,N/A,,Overcast,0,2013-01-26 01:54:00
9:54 PM,9.0,5.0,84,30.13,10.0,Calm,Calm,-,N/A,,Scattered Clouds,0,2013-01-26 02:54:00
10:54 PM,7.0,3.9,87,30.13,10.0,Calm,Calm,-,N/A,,Mostly Cloudy,0,2013-01-26 03:54:00
11:54 PM,3.0,-0.0,87,30.13,10.0,Calm,Calm,-,N/A,,Clear,0,2013-01-26 04:54:00